Location: Sternwarte ZA, Rosenfeld-Brittheim
(48.2889°N, 8.6789°E)
Time: 21:50:01
(UTC+02:00)

ISS - Pass Details

Date: 14 September 2019
Orbit: 411 x 421 km, 51.6° (Epoch: 19 September)

Event Time Altitude Azimuth Distance (km) Brightness Sun altitude
Exits shadow 04:44:57 31° 127° (SE) 763 -2.3 -21.8°
Drops below altitude 10° 04:46:49 10° 121° (ESE) 1,488 -0.7 -21.6°
Sets 04:48:55 0° 120° (ESE) 2,351 0.4 -21.3°
